Regional Weather Roundup
Issued by NWS Upton, NY

Current Version | Previous Version | Text Only | Print | Product List | Glossary On
Versions: 1 2 3 4 5 6 7 8 9 10 11 12 13 14 15 16 17 18 19 20 21 22 23 24 25 26 27 28 29 30 31 32 33 34 35 36 37 38 39 40 41 42 43 44 45 46 47 48 49 50
000 ASUS41 KOKX 031918 RWROKX REGIONAL WEATHER ROUNDUP NATIONAL WEATHER SERVICE NEW YORK NY 300 PM EDT FRI JUL 03 2015 NOTE: "FAIR" INDICATES FEW OR NO CLOUDS BELOW 12,000 FEET WITH NO SIGNIFICANT WEATHER AND/OR OBSTRUCTIONS TO VISIBILITY. NYZ071-072-176-178-NJZ106-104-032000- NEW YORK CITY METRO AREA CITY SKY/WX TMP DP RH WIND PRES REMARKS CENTRAL PARK SUNNY 80 51 36 CALM 30.00S LAGUARDIA APRT PTSUNNY 81 49 32 VRB7 29.96F KENNEDY INTL PTSUNNY 81 51 35 S12 29.98S NEWARK/LIBERTY PTSUNNY 83 54 36 S5 29.96F BRNX BOT. GARD N/A 81 52 36 N6 29.99F TETERBORO SUNNY 80 52 37 W8 29.96F $$ NYZ177-179-078>081-032000- LONG ISLAND NEW YORK CITY SKY/WX TMP DP RH WIND PRES REMARKS FARMINGDALE SUNNY 79 47 32 W7 29.98S ISLIP PTSUNNY 80 45 28 N7 29.96F SHIRLEY SUNNY 80 50 34 N8 29.99R WESTHAMPTON MOSUNNY 75 53 46 VRB5 29.99F MONTAUK POINT N/A 77 53 43 S3 29.99S $$ NYZ052-065-067-032000- HUDSON VALLEY CITY SKY/WX TMP DP RH WIND PRES REMARKS WHITE PLAINS SUNNY 77 49 37 NW6 29.99S NEWBURGH SUNNY 75 54 46 W7 30.01S MONTGOMERY SUNNY 76 55 48 VRB5 29.99S POUGHKEEPSIE SUNNY 77 47 34 CALM 29.98S ALBANY MOSUNNY 76 45 33 S5 29.99S $$ NJZ001-105-106-008-010-013-015-019>022-104-032000- NEW JERSEY CITY SKY/WX TMP DP RH WIND PRES REMARKS NEWARK/LIBERTY PTSUNNY 83 54 36 S5 29.96F TETERBORO SUNNY 80 52 37 W8 29.96F CALDWELL MOSUNNY 81 51 35 NW7 29.97F MORRISTOWN PTSUNNY 81 57 44 N6 29.98S SOMERVILLE MOSUNNY 82 53 36 NW7 29.96F SUSSEX SUNNY 78 52 40 MISG 29.99S ANDOVER N/A 78 54 43 VRB3 29.99F TRENTON MOSUNNY 78 57 48 CALM 29.97F MILLVILLE MOSUNNY 79 61 53 VRB5 29.98F ATLANTIC CITY PTSUNNY 78 60 53 SE9 29.99F WRIGHTSTOWN PTSUNNY 82 60 48 VRB2 29.95F TOMS RIVER CLOUDY 77 59 53 SE7 29.99S BELMAR MOSUNNY 75 59 57 SE8 29.99S $$ PAZ047>061-062-071-032000- EASTERN PENNSYLVANIA CITY SKY/WX TMP DP RH WIND PRES REMARKS PHILADELPHIA PTSUNNY 81 59 47 S6 29.97F ALLENTOWN MOSUNNY 79 56 45 W5 29.98F SCRANTON SUNNY 79 55 43 NW7 29.99F $$ CTZ002-004>006-009-010-012-RIZ004-006-007-MAZ004-011-015-032000- SOUTHERN NEW ENGLAND IN CT CITY SKY/WX TMP DP RH WIND PRES REMARKS BRADLEY INTL MOSUNNY 78 49 35 CALM 29.96F HARTFORD SUNNY 77 50 38 MISG 29.96F DANBURY SUNNY 76 49 38 W3 30.00S WTRBRY/OXFORD SUNNY 75 48 38 S6 30.01F BRIDGEPORT SUNNY 77 52 41 SW10 29.98F MERIDEN SUNNY 80 46 30 VRB3 29.97F NEW HAVEN MOSUNNY 74 54 49 S7 29.98F CHESTER FAIR 75 52 43 S9 29.99S GROTON MOSUNNY 74 53 48 S9 29.97S WILLIMANTIC SUNNY 79 50 36 CALM 29.97F IN RI CITY SKY/WX TMP DP RH WIND PRES REMARKS PROVIDENCE MOSUNNY 79 52 38 SW9 29.96S BLOCK ISLAND SUNNY 73 52 46 S7 29.98S WESTERLY SUNNY 75 50 41 S10 29.98S IN MA CITY SKY/WX TMP DP RH WIND PRES REMARKS BOSTON MOSUNNY 74 53 48 SE13 29.95S WORCESTER SUNNY 75 45 34 SW8 29.99S WESTFIELD MOSUNNY 78 51 38 S10 29.96F PROVINCETOWN SUNNY 81 21 11 NE5 29.97F NANTUCKET SUNNY 75 53 46 N9 29.97S $$ ANZ330-335-338-340-345-350-353-355-032000- COASTAL MARINE OBSERVATIONS STATION/POSITION TIME SKY/WX TEMP WIND PRES VSBY WAVE AIR SEA DIR/SP/G HT/PER (UTC) (F) (DEG/KT/KT) (MB) (MI) (FT/S) NY HARB ENTRANCE 1850 71 71 160/ 4/ 6 1015.0 2/ 8 4S FIRE IS 1803 73 N/A 2/ 8 20S FIRE ISLAND 1850 70 71 240/ 4/ 4 1015.3 3/ 8 GREAT SOUTH BAY 1800 75 76 320/ 6/ 10 N/A 23SW MTP 1850 68 71 140/ 2/ 4 1015.3 3/ 8 HUDSON CANYON NOT AVBL KINGS POINT 1800 77 66 10/ 2/ 4 1014.7 CENTRAL LI SOUND NOT AVBL EASTERN LI SOUND 1800 68 64 220/ 6/ 8 N/A ROBBINS REEF 1800 76 80/ 4/ 5 1014.0 $$ >>>>>>>>>>>>>>>>>>>>>>>>>>>> KEY <<<<<<<<<<<<<<<<<<<<<<<<<<< > < > SKY/WX - SKY CONDITION/PRESENT WEATHER < > TMP - TEMPERATURE IN FAHRENHEIT < > DP - DEWPOINT IN FAHRENHEIT < > RH - RELATIVE HUMIDITY IN PERCENT < > WIND - DIRECTION AND SPEED IN MPH < > PRES - MEAN SEA LEVEL PRESSURE IN INCHES OF HG < > WCI - WIND CHILL INDEX < > VSB - VISIBILITY IN MILES < > HX - HEAT INDEX < > TC - TEMPERATURE IN CELSIUS < > VRB - VARIABLE WIND DIRECTION < > < >>>>>>>>>>>>>>>>>>>>>>>>>>>> KEY <<<<<<<<<<<<<<<<<<<<<<<<<<<

USA.gov is the U.S. government's official web portal to all federal, state and local government web resources and services.